Tracking 28790 objects as of 19-Apr-2024
HD Live streaming from Space Station
objects crossing your sky now

STARLINK-3984

Track STARLINK-3984 now!
10-day predictions
STARLINK-3984 is classified as:


NORAD ID: 52621
Int'l Code: 2022-052Z
Perigee: 545.9 km
Apogee: 548.1 km
Inclination: 53.2 °
Period: 95.4 minutes
Semi major axis: 6917 km
RCS: Unknown
Launch date: May 14, 2022
Source: United States (US)
Launch site: AIR FORCE EASTERN TEST RANGE (AFETR)
Your satellite tracking list
Your tracking list is empty




NASA's NSSDC Master Catalog

Two Line Element Set (TLE):
1 52621U 22052Z   24109.44625834 -.00003992  00000-0 -23308-3 0  9993
2 52621  53.2158 127.7441 0001612  78.7536 281.3637 15.08806159106789
Source of the keplerian elements: AFSPC